Wind_Speed
6 5 6 7 7 7 7 7 8 9 9 10 11 13 12 11 11 11 10 9 8 8 7 8 8 5 4 2 4 6 5 4 3 2 4 4 4 5 5 8 7 8 11
7 7 8 8 9 8 8 7 8 9 8 8 9 10 10 9 9 9 8 7 6 7 7 8 8 6 4 4 3 4 5 4 3 4 6 5 4 5 6 7 9 10 13
11 9 9 10 10 9 8 7 7 8 8 7 7 8 8 8 8 7 7 6 5 4 6 8 8 7 6 5 4 4 4 4 3 6 7 6 6 6 6 8 11 13 15
12 12 12 11 11 11 10 9 8 8 7 6 5 5 5 5 6 6 6 5 4 4 4 5 7 7 6 5 4 4 4 4 7 7 5 6 5 7 10 10 11 14 16
17 15 14 12 12 13 13 12 11 9 7 5 4 3 3 2 3 4 5 5 5 5 5 6 7 6 6 5 5 4 5 6 8 8 6 6 6 8 10 10 11 14 16
20 16 15 14 13 13 12 12 12 12 11 8 6 3 0 3 4 5 5 6 5 6 6 6 7 7 6 5 5 6 6 7 8 8 7 7 8 10 11 13 12 13 14
20 17 17 16 14 12 12 12 12 11 10 8 7 5 4 4 4 5 6 7 7 7 7 8 8 8 7 6 7 7 7 8 9 9 8 8 10 13 14 15 14 13 15
20 19 18 18 16 15 14 13 12 11 9 8 7 7 5 4 5 7 7 8 9 8 9 9 9 9 8 8 9 10 9 10 12 10 10 10 12 15 13 14 15 15 15
24 23 22 22 20 18 17 15 13 12 11 11 10 9 7 6 5 5 8 10 10 11 11 11 11 10 10 10 11 11 12 12 12 11 11 12 13 16 12 13 15 17 17
23 22 21 19 18 18 18 15 11 8 5 5 6 8 10 10 8 7 7 9 12 13 13 14 13 13 12 12 12 13 14 14 15 13 12 13 15 15 14 16 16 21 21
21 20 18 17 16 15 14 12 10 9 9 7 6 4 4 8 10 9 9 10 11 14 16 15 15 15 14 14 14 15 15 15 15 16 15 16 17 15 16 18 23 24 19
15 17 18 17 16 15 15 14 13 13 13 11 10 9 8 7 7 7 8 10 13 14 16 18 17 16 16 13 15 17 18 16 16 19 18 20 20 15 16 18 23 24 22
12 14 17 17 17 16 16 15 15 14 14 14 14 13 12 10 9 8 9 10 10 14 15 15 18 18 16 16 15 18 20 19 18 18 19 22 20 18 15 19 21 23 22
11 12 14 15 16 16 16 16 16 16 17 17 16 16 15 14 13 13 11 11 10 11 13 17 16 18 22 21 24 23 21 23 24 18 20 24 24 21 20 22 23 25 24
10 10 12 15 16 17 17 17 16 16 16 17 17 18 17 15 14 14 13 14 15 13 14 18 18 19 19 23 26 27 25 25 24 19 19 24 24 21 21 25 26 27 25
8 10 10 12 15 16 17 17 16 16 18 18 17 18 18 15 14 14 16 16 15 15 18 14 20 19 24 22 23 28 28 27 22 21 20 21 24 22 23 26 27 29 26
9 10 12 12 14 15 17 18 17 17 18 17 16 17 17 16 16 15 14 15 16 17 21 23 18 22 23 26 28 26 28 28 22 22 22 21 20 24 25 29 27 29 26
9 11 13 13 15 17 19 18 16 15 15 16 16 16 19 17 15 15 14 15 16 17 17 19 22 20 23 26 29 26 23 24 25 23 23 23 22 20 26 29 30 27 27
9 10 11 14 18 19 17 15 12 14 16 16 15 16 19 18 18 16 16 17 18 17 16 17 19 22 24 24 28 28 24 26 27 27 25 25 24 24 22 25 32 31 28
10 10 12 14 16 17 14 12 9 9 14 16 16 16 19 17 18 17 16 16 17 17 17 17 19 21 24 24 24 27 26 24 27 29 28 26 26 27 26 25 29 34 33
11 13 14 14 14 12 12 11 9 16 16 16 15 17 17 18 18 18 17 17 16 17 18 19 20 21 24 24 23 22 26 27 26 27 29 27 27 27 26 25 25 30 35
11 13 14 15 13 10 10 11 9 15 12 13 15 16 16 18 18 18 19 19 18 20 20 20 19 20 22 20 12 13 5 13 23 28 28 29 29 27 27 28 27 27 30
11 13 13 13 12 11 13 13 14 11 13 11 16 15 16 18 18 18 19 19 21 20 22 22 19 18 21 23 23 11 4 9 6 19 30 29 29 30 29 28 32 31 31
10 10 10 12 12 13 14 14 15 14 15 15 14 15 18 18 19 18 18 18 22 22 22 22 20 20 20 22 23 26 28 29 6 6 14 30 31 31 32 28 32 34 34
7 9 11 11 12 13 14 14 15 14 13 14 15 18 17 18 18 19 17 19 21 22 22 24 25 23 24 25 23 23 29 26 33 12 11 6 25 31 32 34 31 34 35
8 10 10 13 15 17 16 15 15 15 16 18 19 19 18 20 18 19 20 21 21 23 23 25 26 27 28 28 28 27 26 17 11 12 14 10 12 22 29 30 33 34 35
Wind_Direction
23 77 74 72 73 73 78 90 100 102 105 108 118 129 134 141 146 149 150 151 149 160 167 167 163 155 138 150 188 200 204 213 243 204 168 130 134 122 134 165 152 149 154
78 79 76 69 70 73 74 82 93 96 99 107 116 124 132 141 146 150 153 155 163 170 179 184 182 180 179 184 188 221 240 238 223 189 163 158 186 158 147 152 153 155 150
67 58 58 57 60 67 76 87 90 96 97 101 107 117 129 140 150 156 163 165 177 192 192 196 199 204 213 223 220 230 244 239 197 168 168 184 188 190 163 158 156 150 142
62 58 51 58 60 62 64 69 79 85 89 97 101 112 126 144 154 162 170 181 192 208 221 215 220 218 221 232 229 225 216 206 176 174 164 173 165 185 173 172 168 155 152
67 61 57 59 62 64 61 60 61 58 63 64 84 95 123 153 178 186 196 210 219 227 245 241 242 237 234 234 238 223 203 195 191 179 174 175 171 170 162 160 164 159 150
74 68 62 62 70 67 66 63 61 60 55 42 35 26 231 199 209 217 219 230 240 249 255 257 254 253 248 242 234 227 210 203 203 190 187 189 179 182 172 168 166 158 152
79 72 65 66 66 68 65 58 55 53 53 47 42 28 352 304 260 247 245 246 246 252 263 261 261 257 251 239 236 236 221 211 201 195 200 197 191 178 173 168 167 160 150
88 83 77 78 77 72 66 59 50 43 42 40 33 23 7 337 304 281 261 262 263 260 265 266 263 261 256 247 241 238 228 222 212 214 211 208 202 188 187 193 186 175 163
88 82 79 74 72 75 70 63 63 53 41 34 28 19 1 341 311 289 282 270 263 267 267 266 267 264 257 249 246 242 237 227 217 226 219 211 209 206 205 209 194 180 178
81 78 71 68 65 62 62 61 54 53 55 46 26 14 8 3 333 294 278 279 279 270 267 267 266 266 261 253 247 246 243 235 228 229 228 226 226 221 209 206 208 190 185
72 67 62 59 53 48 44 40 36 35 29 15 6 341 322 330 334 329 293 279 271 274 271 265 267 266 262 258 248 245 241 234 232 232 231 240 225 219 213 213 202 203 200
56 53 51 47 44 39 34 33 32 27 23 16 4 354 348 330 303 296 307 294 279 269 268 268 262 264 262 254 252 245 238 236 237 238 236 241 227 234 220 220 206 202 199
46 44 40 36 34 34 31 28 24 21 19 15 13 5 354 336 321 307 294 296 294 282 272 268 263 255 250 249 247 250 248 240 239 240 238 232 229 236 232 213 204 203 204
39 33 34 33 32 29 25 23 17 13 11 12 9 2 357 349 340 324 311 295 295 286 280 270 263 257 257 252 254 253 251 249 247 243 243 233 236 241 238 216 204 205 206
44 27 23 24 27 25 21 17 16 15 13 9 6 4 360 352 341 329 313 302 290 277 290 276 264 257 254 250 253 252 252 253 251 245 244 238 237 243 224 215 206 204 208
38 25 19 20 24 24 23 19 16 14 9 6 7 5 1 356 345 336 325 316 304 295 273 284 273 261 255 250 249 251 250 249 245 243 245 241 239 239 220 215 207 204 209
25 19 17 12 17 21 20 18 16 14 10 9 6 8 7 359 346 339 329 323 316 304 289 272 284 270 251 251 250 251 248 246 239 240 242 244 239 237 226 218 217 210 213
27 19 14 10 8 17 16 13 13 13 16 13 7 5 4 357 349 339 329 321 319 314 308 295 274 286 258 254 249 245 240 239 242 234 239 240 239 231 227 224 216 217 210
22 16 12 9 13 11 6 3 358 11 17 12 8 4 359 358 353 342 330 324 322 318 312 304 295 278 285 255 250 252 243 237 240 239 230 236 235 229 223 222 218 215 217
22 19 17 13 11 6 352 337 334 1 11 13 4 358 355 348 343 340 330 327 327 321 318 311 302 289 283 286 259 251 250 239 235 237 230 232 233 230 224 219 225 219 215
19 16 13 10 8 4 357 341 334 1 4 2 356 353 352 345 337 334 331 326 323 323 317 312 307 299 290 272 289 247 252 248 234 231 232 230 228 228 224 220 210 212 217
16 11 9 6 359 357 355 354 356 347 346 346 345 347 347 340 334 330 329 326 321 320 313 310 304 303 290 277 273 259 251 233 233 229 231 228 225 221 222 216 211 209 206
20 11 6 358 353 356 359 359 360 357 346 347 344 343 342 341 334 329 323 324 321 312 303 300 296 290 289 286 271 274 218 251 205 219 225 225 223 219 220 216 217 210 204
15 8 4 4 0 1 3 1 0 354 341 332 334 334 338 340 333 329 326 324 322 305 300 295 295 286 281 284 288 265 269 251 277 223 225 219 215 216 217 212 212 210 206
6 359 5 3 4 6 7 4 356 345 337 331 335 342 344 337 330 325 326 315 311 309 304 297 290 287 280 273 272 273 274 277 247 254 251 209 214 214 217 212 211 208 207
5 3 3 2 7 6 4 1 351 344 343 338 343 347 341 332 327 322 323 318 314 309 309 299 296 288 283 275 270 265 260 260 256 237 247 230 210 217 213 210 209 209 208
Height
809 807 808 807 807 808 808 808 808 808 808 808 807 806 807 808 808 808 808 809 808 809 810 810 811 812 812 812 812 813 812 812 812 812 813 812 813 812 812 812 812 813 813
808 809 809 809 808 808 808 810 809 809 810 809 809 808 808 809 809 810 810 809 809 809 810 811 811 812 812 812 813 813 813 813 811 811 812 813 813 813 813 813 813 814 814
811 812 812 810 810 809 808 809 809 809 809 810 810 809 810 810 811 811 811 811 811 811 811 811 811 812 812 812 812 812 812 812 812 811 812 813 813 814 814 815 815 815 816
813 813 813 811 811 811 811 811 809 810 809 810 810 809 810 811 811 811 812 812 812 812 813 811 812 812 811 812 811 810 811 811 811 811 813 813 813 814 815 816 816 816 817
814 813 813 812 813 812 811 812 811 811 810 811 810 810 810 811 811 812 812 812 812 812 813 812 812 812 811 811 811 810 810 810 811 811 813 814 815 815 816 817 819 819 818
815 815 815 813 813 813 813 812 811 810 811 812 811 811 811 810 810 811 810 812 812 812 812 813 812 811 811 811 810 810 810 809 810 812 813 813 814 815 816 818 820 820 821
817 817 816 815 814 814 813 812 811 812 811 812 811 811 811 810 810 810 810 811 812 812 812 812 812 811 811 810 810 810 809 809 811 811 812 813 814 815 816 818 820 822 823
817 818 818 816 816 815 814 813 813 812 812 811 811 810 810 809 809 810 810 811 811 811 811 811 810 810 810 810 809 809 809 809 810 810 810 812 813 814 816 819 819 822 822
818 819 819 818 818 816 814 814 813 813 813 812 811 810 809 808 807 807 808 809 809 809 810 809 809 808 808 808 808 808 808 807 809 810 810 810 811 813 816 819 820 821 820
820 820 820 820 819 817 816 814 814 812 810 809 809 808 807 807 806 805 805 806 807 807 807 807 807 806 806 806 806 806 806 807 807 807 809 809 809 811 814 814 819 820 819
821 821 822 821 820 818 817 815 813 812 810 808 806 805 804 804 804 803 803 802 803 804 804 804 805 804 803 803 803 803 804 805 804 804 806 806 807 808 811 812 813 817 817
824 823 822 822 820 818 817 815 813 811 809 808 806 804 803 802 801 800 800 800 799 799 800 801 801 801 801 801 800 800 800 801 802 800 801 802 805 806 808 809 811 814 816
826 825 823 822 820 818 816 814 812 810 808 806 804 803 801 800 798 797 796 796 796 796 796 796 797 797 797 797 796 796 797 797 797 798 797 798 801 803 805 806 808 807 814
828 827 826 824 822 819 817 814 812 809 807 805 803 801 799 798 797 795 794 793 793 792 791 792 792 792 791 791 790 791 792 792 793 794 792 794 796 799 801 802 803 808 806
829 829 828 825 822 820 817 815 812 810 808 805 803 801 799 797 795 793 791 790 789 787 787 786 785 786 786 785 783 785 786 786 789 790 789 789 791 794 796 797 799 801 804
829 828 828 826 822 820 817 815 813 810 808 805 803 801 799 797 795 793 790 787 785 784 783 781 781 779 778 779 778 778 779 780 783 785 785 784 786 788 792 794 797 798 800
831 828 826 824 822 819 816 813 812 810 808 805 803 800 798 796 794 790 788 786 783 779 778 777 775 774 773 771 770 772 773 774 776 778 780 782 781 783 786 790 793 796 798
827 826 825 824 822 816 814 813 812 810 806 804 802 800 797 795 793 790 787 784 781 778 776 774 772 770 768 767 766 765 766 767 768 770 773 775 777 777 780 784 788 792 790
828 826 824 822 818 815 815 814 813 809 805 803 801 799 796 793 791 789 786 783 780 777 774 772 771 768 764 761 760 760 760 760 761 762 764 767 770 771 774 777 783 787 790
829 827 824 821 818 817 817 816 813 808 804 800 799 797 794 793 791 787 785 781 779 776 774 771 769 765 762 758 755 753 753 753 752 753 755 759 762 764 766 771 775 780 785
829 827 824 821 820 819 818 815 810 804 800 799 798 796 793 791 790 787 783 780 777 774 771 768 766 763 757 757 754 747 747 746 744 746 747 749 753 756 759 762 766 771 776
829 827 825 823 822 820 817 813 808 803 800 798 797 793 792 790 788 786 782 778 774 771 769 767 765 760 756 754 752 747 741 740 737 737 740 741 743 747 752 754 758 762 768
826 824 824 824 823 819 814 810 806 804 802 799 796 794 790 788 787 784 780 776 772 770 767 764 761 758 754 750 750 747 737 728 726 728 731 733 736 738 742 746 747 752 759
826 825 824 822 820 817 813 810 806 804 802 800 797 793 787 785 783 781 776 773 770 768 764 760 757 754 753 746 743 737 735 731 722 720 724 724 727 730 733 738 740 743 750
828 826 822 820 818 815 811 808 806 806 804 800 795 788 783 782 781 779 773 772 768 763 759 756 752 748 746 744 741 738 733 727 724 723 713 718 720 721 725 728 733 736 741
826 824 822 819 815 811 809 808 808 806 800 796 791 785 782 780 777 776 771 767 762 757 753 751 746 741 739 738 735 735 731 726 714 714 714 708 712 715 719 721 725 729 732